Location: Schoppernau/Bregenzer+Wald
(47.3144°N, 10.0109°E)
Time: 10:04:15
(UTC+01:00)

ISS - Visible Passes

Search period start: 10 December 2025 00:00
Search period end: 20 December 2025 00:00
Orbit: 416 x 420 km, 51.6° (Epoch: 09 December)

Date Brightness Start Highest point End Pass type
(mag) Time Alt. Az. Time Alt. Az. Time Alt. Az.
11 Dec -0.6 07:13:44 10° S 07:16:08 18° SE 07:18:31 10° E visible
12 Dec -0.3 06:27:11 10° SSE 06:28:25 12° SE 06:29:39 10° ESE visible
13 Dec -2.3 07:13:33 10° SW 07:16:45 41° SE 07:19:58 10° ENE visible
14 Dec -1.6 06:25:58 10° SSW 06:28:53 27° SE 06:31:48 10° E visible
15 Dec -1.0 05:38:49 11° S 05:41:03 18° SE 05:43:24 10° E visible
15 Dec -3.7 07:14:04 10° WSW 07:17:27 90° SSE 07:20:50 10° ENE visible
16 Dec -0.4 04:53:44 11° ESE 04:53:44 11° ESE 04:54:19 10° ESE visible
16 Dec -3.3 06:26:43 14° SW 06:29:26 62° SSE 06:32:47 10° ENE visible
17 Dec -2.6 05:41:18 40° SSE 05:41:26 40° SE 05:44:38 10° ENE visible
17 Dec -3.5 07:14:52 10° W 07:18:10 52° NNW 07:21:30 10° ENE visible
18 Dec -0.5 04:55:38 14° E 04:55:38 14° E 04:56:21 10° E visible
18 Dec -3.8 06:28:34 30° W 06:30:02 68° NNW 06:33:25 10° ENE visible
19 Dec -3.0 05:42:43 49° ENE 05:42:43 49° ENE 05:45:18 10° ENE visible
19 Dec -3.1 07:15:42 10° WNW 07:18:55 39° N 07:22:07 10° ENE visible
